COSMOS 1275 DEB, 42125

Orbit data source: Space-Track

COSMOS 1275 DEB, 42125 is space debris in LEO originally from a launch on Thu, 04 Jun 1981 UTC launched from the Plesetsk Missile And Space Complex (PKMTR). Debris objects in space refer to the collection of defunct objects orbiting the Earth. Examples of debris include non-operational satellites, rocket bodies, and fragments generated from explosions, collisions, or faulty payload assembly.

Loading next visibility...
Identifier
42125, 1981-053QM
Orbit
LEO
Country
Flag of CISCIS
Related business
Manufacturer
Unknown
Mission
Spacecraft
Bus & Motor
Unknown
Mass
Unknown
Launch date (UTC)
1981-06-04 (45 years ago)
Launch vehicle
Unknown
Launch site
Plesetsk Missile And Space Complex (PKMTR)
Object type
Payload
Rocket body
Debris
Shape & HBR
Unknown shape, 0.1 m
Radar Cross Section
Small (<0.1 m²)

Expand to show TLE details & history
Last TLE update: 3 days ago

TLE from 3 days ago
0 COSMOS 1275 DEB
1 42125U 81053QM  26092.44968917  .00002661  00000-0  15001-2 0  9992
2 42125  82.9407 358.6209 0054742  15.0192 345.2593 14.09263290586702
Epoch: 2026-04-02T10:47Z
TLE epoch observation values (Epoch: 2026-04-02T10:47:33.144Z)
Latitude
0.00001°
Longitude
5.9348°
Altitude
826.519 km
Speed
7.459 km/s
True Right ascension
23h 54m 29s
True Declination
0° 00' 00"
Sunlit
Object was in daylight at epoch
Visualization orbit readout
Latitude
Unknown
Longitude
Unknown
Altitude
Unknown
Speed
Unknown
Apparent Right ascension
Unknown
Apparent Declination
Unknown
Sunlit
N/A
Visualization observer readout
Local Sidereal Time
05:11:56
Azimuth
Unknown
Elevation
Unknown
Doppler factor
Unknown
Orbital elements
Apogee altitude
898.613 km
Perigee altitude
819.378 km
Semi-major axis
7,237.132 km
Eccentricity
0.00547
Inclination
82.9407°
RAAN
358.6209°
Arg. of periapsis
15.0192°
True anomaly
345.09862°
Mean anomaly
345.2593°
Eccentric anomaly
345.17907°
Mean motion
3.52528 °/min
Orbital period
102.12 mins
BSTAR
0.0015001
Loading maneuver chart data...
Computing Atmospheric mass density...
Loading historical data...
Loading historical data...
Loading historical data...
Loading historical data...
Loading historical data...
Loading historical data...
Loading historical data...

Documentation

Showing up to 5 results
|